FW6296 Weather Reports


Display with metric or nautical units.
time (UTC)temp
F
wind
direction
speed
MPH
gust
MPH
rain 1hr
in
rain 24hr
in
rain mn
in
humidity
%
barometer
mb
20260508121044 49 87 0.0 2.0 0.00 0.02 0.01 95 1011.1
20260508120023 48 73 0.0 1.0 0.01 0.02 0.01 95 1011.2
20260508115025 48 0.0 0.0 0.01 0.02 0.01 95 1011.3
20260508114024 48 0.0 0.0 0.01 0.02 0.01 95 1011.4
20260508113024 48 0.0 0.0 0.01 0.02 0.01 95 1011.2
20260508112046 48 0.0 0.0 0.01 0.02 0.01 94 1010.8
20260508111024 48 165 0.0 1.0 0.01 0.02 0.01 94 1010.9
20260508110025 48 0.0 0.0 0.00 0.01 0.00 93 1010.8
20260508105045 48 51 0.0 0.0 0.00 0.01 0.00 92 1010.8
20260508104025 48 0.0 0.0 0.00 0.00 0.00 92 1011.0
20260508103025 48 23 0.0 1.0 0.00 0.00 0.00 92 1011.0
20260508102025 47 332 0.0 1.0 0.00 0.00 0.00 91 1011.1
20260508101106 47 78 0.0 1.0 0.00 0.00 0.00 91 1011.1
20260508100046 47 0.0 0.0 0.00 0.00 0.00 90 1011.1
20260508095046 48 79 0.0 0.0 0.00 0.00 0.00 89 1011.1
20260508094026 48 85 0.0 1.0 0.00 0.00 0.00 88 1011.1
20260508093026 49 334 0.0 1.0 0.00 0.00 0.00 87 1011.3
20260508092026 49 103 0.0 0.0 0.00 0.00 0.00 86 1011.2
20260508091026 49 324 1.0 2.0 0.00 0.00 0.00 85 1011.2
20260508090027 49 331 0.0 2.0 0.00 0.00 0.00 85 1011.2
20260508085027 49 311 0.0 2.0 0.00 0.00 0.00 85 1011.2
20260508084027 49 333 0.0 1.0 0.00 0.00 0.00 84 1011.2
20260508083027 49 322 1.0 3.0 0.00 0.00 0.00 85 1011.2
20260508082027 48 333 1.0 3.0 0.00 0.00 0.00 86 1011.3
20260508081027 48 256 0.0 1.0 0.00 0.00 0.00 87 1011.4
20260508080028 48 344 0.0 1.0 0.00 0.00 0.00 87 1011.4
20260508075028 48 244 0.0 0.0 0.00 0.00 0.00 87 1011.5
20260508074028 48 279 0.0 1.0 0.00 0.00 0.00 87 1011.6
20260508073028 47 336 0.0 0.0 0.00 0.00 0.00 89 1011.7
20260508072030 46 0.0 0.0 0.00 0.00 0.00 91 1011.8
20260508071049 46 334 0.0 0.0 0.00 0.00 0.00 92 1011.8
20260508070029 45 169 0.0 0.0 0.00 0.00 0.00 92 1011.8
20260508065029 46 305 0.0 1.0 0.00 0.00 0.00 91 1011.8
20260508064029 46 88 0.0 1.0 0.00 0.00 0.00 90 1011.7
20260508063029 47 0.0 0.0 0.00 0.00 0.00 89 1011.7
20260508062030 47 294 0.0 1.0 0.00 0.00 0.00 88 1011.8
20260508061030 47 329 1.0 2.0 0.00 0.00 0.00 87 1012.0
20260508060030 48 301 0.0 2.0 0.00 0.00 0.00 87 1011.9
20260508055030 47 328 1.0 2.0 0.00 0.00 0.00 87 1011.9
20260508054015 47 5 0.0 1.0 0.00 0.00 0.00 87 1011.8
20260508053016 48 0.0 0.0 0.00 0.00 0.00 86 1011.8
20260508052036 48 47 0.0 1.0 0.00 0.00 0.00 85 1011.7
20260508051036 49 349 0.0 2.0 0.00 0.00 0.00 83 1011.8
20260508050016 50 40 0.0 1.0 0.00 0.00 0.00 82 1011.7
20260508045016 50 326 1.0 3.0 0.00 0.00 0.00 81 1011.5
20260508044057 50 309 0.0 2.0 0.00 0.00 0.00 80 1011.4
20260508043017 50 333 0.0 2.0 0.00 0.00 0.00 79 1011.3
20260508042017 51 290 0.0 2.0 0.00 0.00 0.00 79 1011.1
20260508041057 51 297 0.0 2.0 0.00 0.00 0.00 78 1011.2
20260508040017 51 280 1.0 3.0 0.00 0.00 0.00 77 1011.2
20260508035018 52 294 1.0 3.0 0.00 0.00 0.00 76 1011.2
20260508034018 52 290 1.0 2.0 0.00 0.00 0.00 75 1011.2
20260508033015 52 299 1.0 3.0 0.00 0.00 0.00 75 1011.1
20260508032016 52 266 1.0 3.0 0.00 0.00 0.00 74 1011.2
20260508031016 52 295 1.0 4.0 0.00 0.00 0.00 74 1011.1
20260508030016 52 317 1.0 3.0 0.00 0.00 0.00 74 1011.0
20260508025016 52 301 1.0 4.0 0.00 0.00 0.00 74 1011.0
20260508024016 50 324 0.0 2.0 0.00 0.00 0.00 74 1011.0
20260508023016 50 97 0.0 1.0 0.00 0.00 0.00 74 1010.9
20260508022016 51 103 0.0 1.0 0.00 0.00 0.00 73 1010.9
20260508021037 51 9 0.0 1.0 0.00 0.00 0.00 71 1010.8
20260508020017 51 326 0.0 0.0 0.00 0.00 0.00 72 1010.7
20260508015037 51 58 0.0 1.0 0.00 0.00 0.00 72 1010.7
20260508014017 51 134 0.0 2.0 0.00 0.00 0.00 71 1010.4
20260508013017 52 151 0.0 1.0 0.00 0.00 0.00 70 1010.3
20260508012017 53 114 0.0 1.0 0.00 0.00 0.00 68 1010.2
20260508011018 53 82 0.0 1.0 0.00 0.00 0.00 66 1010.2
20260508010018 54 93 0.0 1.0 0.00 0.00 0.00 64 1010.1
20260508005018 55 0.0 0.0 0.00 0.00 0.00 61 1010.1
20260508004038 56 0.0 0.0 0.00 0.00 0.00 60 1010.0
20260508003015 57 92 0.0 0.0 0.00 0.00 0.00 58 1010.0
20260508002016 58 320 0.0 3.0 0.00 0.00 0.00 57 1010.0
20260508001036 58 324 1.0 3.0 0.00 0.00 0.00 57 1010.0
20260508000016 58 352 1.0 4.0 0.00 0.00 0.00 59 1010.0
20260507235016 58 46 1.0 4.0 0.00 0.00 0.00 59 1010.0
20260507234016 60 351 2.0 5.0 0.00 0.00 0.00 56 1010.1
20260507233037 61 304 7.0 12.0 0.00 0.00 0.00 47 1009.7
20260507232017 62 299 5.0 9.0 0.00 0.00 0.00 47 1009.7
20260507231037 62 295 5.0 10.0 0.00 0.00 0.00 48 1009.7
20260507230017 61 301 4.0 9.0 0.00 0.00 0.00 51 1009.8
20260507225018 62 297 6.0 10.0 0.00 0.00 0.00 51 1009.9
20260507224018 62 299 5.0 9.0 0.00 0.00 0.00 52 1010.0
20260507223018 62 298 6.0 12.0 0.00 0.00 0.00 52 1010.1
20260507222018 62 290 4.0 9.0 0.00 0.00 0.00 53 1010.2
20260507221018 62 297 3.0 8.0 0.00 0.00 0.00 54 1010.3
20260507220015 62 284 2.0 8.0 0.00 0.00 0.00 54 1010.4
20260507215015 60 304 5.0 9.0 0.00 0.00 0.00 55 1010.6
20260507214016 61 294 4.0 9.0 0.00 0.00 0.00 55 1010.7
20260507213016 61 303 6.0 11.0 0.00 0.00 0.00 55 1010.7
20260507212016 61 302 6.0 11.0 0.00 0.00 0.00 54 1010.8
20260507211016 61 305 7.0 12.0 0.00 0.00 0.00 55 1010.8
20260507210016 60 290 4.0 9.0 0.00 0.00 0.00 56 1010.8
20260507205017 60 287 3.0 7.0 0.00 0.00 0.00 58 1010.9
20260507204017 59 268 2.0 7.0 0.00 0.00 0.00 58 1011.0
20260507203017 58 288 4.0 10.0 0.00 0.00 0.00 58 1011.2
20260507202022 57 297 3.0 8.0 0.00 0.00 0.00 59 1011.4
20260507201017 56 294 4.0 12.0 0.00 0.00 0.00 61 1011.7
20260507200018 56 303 5.0 9.0 0.00 0.00 0.00 61 1011.9
20260507195017 55 301 5.0 10.0 0.00 0.00 0.00 61 1012.3
20260507194018 55 305 3.0 7.0 0.00 0.00 0.00 62 1012.6
20260507193018 54 305 4.0 9.0 0.00 0.00 0.00 64 1012.7
20260507192015 54 308 5.0 9.0 0.00 0.00 0.00 63 1012.8
20260507191036 55 306 5.0 11.0 0.00 0.00 0.00 60 1012.9
20260507190056 55 303 5.0 11.0 0.00 0.00 0.00 59 1013.0
20260507185016 56 305 6.0 11.0 0.00 0.00 0.00 58 1012.9
20260507184016 56 304 4.0 9.0 0.00 0.00 0.00 57 1012.9
20260507183017 58 281 5.0 11.0 0.00 0.00 0.00 52 1012.7
20260507182016 59 293 5.0 12.0 0.00 0.00 0.00 48 1012.6
20260507181037 58 302 4.0 10.0 0.00 0.00 0.00 47 1012.7
20260507180057 58 292 6.0 11.0 0.00 0.00 0.00 46 1012.9
20260507175018 57 286 3.0 11.0 0.00 0.00 0.00 46 1013.0
20260507174017 57 295 3.0 9.0 0.00 0.00 0.00 48 1013.1
20260507173017 58 303 5.0 9.0 0.00 0.00 0.00 44 1013.0
20260507172017 59 298 4.0 9.0 0.00 0.00 0.00 43 1013.2
20260507171019 59 292 3.0 8.0 0.00 0.00 0.00 42 1013.4
20260507170017 59 305 3.0 8.0 0.00 0.00 0.00 43 1013.5
20260507165018 59 299 3.0 9.0 0.00 0.00 0.00 44 1013.6
20260507164018 59 293 2.0 8.0 0.00 0.00 0.00 45 1013.8
20260507163015 58 302 2.0 7.0 0.00 0.00 0.00 45 1014.0
20260507162015 58 288 3.0 7.0 0.00 0.00 0.00 46 1014.2
20260507161036 57 301 2.0 7.0 0.00 0.00 0.00 46 1014.3
20260507160016 57 277 2.0 6.0 0.00 0.00 0.00 46 1014.5
20260507155016 56 283 2.0 8.0 0.00 0.00 0.00 47 1014.6
20260507154016 57 302 2.0 6.0 0.00 0.00 0.00 47 1014.6
20260507153037 56 295 2.0 5.0 0.00 0.00 0.00 48 1014.7
20260507152016 56 315 1.0 5.0 0.00 0.00 0.00 48 1014.8
20260507151016 55 299 1.0 4.0 0.00 0.00 0.00 50 1014.9
20260507150017 54 273 1.0 5.0 0.00 0.00 0.00 49 1015.1
20260507145017 53 310 2.0 6.0 0.00 0.00 0.00 49 1015.1
20260507144017 53 303 2.0 7.0 0.00 0.00 0.00 50 1015.2
20260507143038 52 301 2.0 5.0 0.00 0.00 0.00 51 1015.4
20260507142018 51 301 3.0 9.0 0.00 0.00 0.00 52 1015.2
20260507141018 51 311 2.0 5.0 0.00 0.00 0.00 54 1015.4
20260507140018 50 308 1.0 5.0 0.00 0.00 0.00 58 1015.6
20260507135018 49 322 2.0 5.0 0.00 0.00 0.00 59 1015.8
20260507134018 48 315 2.0 6.0 0.00 0.00 0.00 58 1015.9
20260507133015 48 310 2.0 7.0 0.00 0.00 0.00 58 1015.8
20260507132016 48 319 2.0 5.0 0.00 0.00 0.00 60 1015.9
20260507131016 47 316 2.0 6.0 0.00 0.00 0.00 62 1015.9
20260507130016 47 323 2.0 6.0 0.00 0.00 0.00 63 1015.8
20260507125016 47 352 1.0 4.0 0.00 0.00 0.00 63 1015.6
20260507124037 46 54 1.0 4.0 0.00 0.00 0.00 66 1015.6
20260507123017 45 56 0.0 3.0 0.00 0.00 0.00 66 1015.6
20260507122016 45 27 1.0 4.0 0.00 0.00 0.00 66 1015.5